GEFSNGP_500_meanwind_270.txt.gz
Wind_Speed
19 21 21 21 22 23 24 24 25 23 23 24 26 27 29 30 32 33 35 36 37 39 40 41 42 44 45 47 48 48 48 48 50 50 50 50 49 49 49 50 50 48 48 48
19 20 21 22 23 25 26 27 26 26 26 25 26 27 27 29 31 33 35 36 37 39 39 40 41 42 43 45 46 48 49 48 48 48 49 50 49 49 49 49 49 49 49 48
19 20 21 22 23 25 28 29 29 28 27 27 27 28 28 29 30 31 33 35 37 38 39 40 41 42 43 45 46 47 48 49 49 49 50 51 50 49 49 49 48 48 48 48
20 20 21 20 22 24 25 27 29 29 29 29 29 29 28 28 29 30 32 34 35 37 38 39 40 42 43 45 46 46 47 48 49 49 50 50 50 49 49 49 48 48 48 48
21 21 21 20 21 23 25 26 28 29 29 29 29 29 28 28 29 30 31 32 33 34 36 38 39 41 42 43 44 45 46 47 48 48 48 49 49 49 49 49 49 49 49 49
21 22 21 19 21 22 24 25 26 28 28 29 28 28 27 28 29 29 30 30 32 33 35 37 39 40 42 42 44 45 45 46 48 48 48 48 48 48 48 48 48 48 48 48
21 22 22 21 21 22 23 23 24 26 27 27 28 27 27 27 28 29 30 30 32 33 35 37 39 40 42 42 43 44 45 46 48 48 48 48 48 48 48 49 49 48 48 48
22 22 22 22 23 23 23 23 24 25 26 27 28 28 28 28 28 28 29 30 31 32 34 36 38 39 40 41 42 43 44 44 45 46 47 47 48 47 48 48 48 48 48 47
23 23 23 23 24 24 25 25 25 26 26 26 27 28 29 29 29 29 28 29 30 31 32 34 36 39 40 41 41 41 41 42 43 44 45 46 46 46 46 46 47 47 47 46
24 23 23 23 23 24 24 25 26 26 27 27 27 28 29 29 30 30 30 30 31 31 32 33 35 36 37 38 39 40 41 41 41 41 42 44 45 45 46 46 46 46 45 45
24 23 22 21 22 22 23 24 25 26 26 27 28 28 29 29 30 30 30 30 30 31 31 32 33 35 36 37 37 38 39 39 40 40 41 41 42 43 44 44 44 44 45 45
25 24 23 21 21 22 23 24 25 25 26 26 27 27 28 29 30 30 30 31 30 30 31 31 32 33 34 36 36 37 37 38 38 39 39 40 41 41 42 43 43 43 44 44
26 25 24 22 22 23 23 24 24 25 25 25 26 26 26 27 28 29 30 30 31 31 31 31 32 33 34 35 35 36 37 37 38 38 38 39 39 40 40 41 42 43 43 43
25 25 24 24 23 24 24 23 23 24 24 24 24 25 25 26 26 27 28 29 30 31 31 31 32 32 33 33 34 35 36 36 37 37 37 38 38 38 39 39 40 41 42 42
25 25 24 23 23 23 24 24 24 24 24 24 24 24 24 25 25 26 27 28 28 29 29 30 31 32 32 33 33 34 35 36 36 36 37 37 37 37 37 38 39 39 39 40
24 24 24 23 23 23 23 24 24 23 23 24 24 24 25 25 26 26 26 27 27 28 28 29 29 29 31 32 32 32 33 35 36 36 36 35 35 35 35 36 36 37 37 38
22 22 23 23 23 23 24 23 23 23 24 24 23 23 24 24 24 24 25 25 26 26 26 26 26 27 28 28 29 30 31 31 32 34 35 35 35 35 35 35 35 36 36 37
21 21 21 22 22 23 23 23 23 23 23 23 23 24 24 24 24 24 24 25 25 24 24 24 25 26 26 27 27 28 29 30 30 31 32 33 34 35 35 36 36 36 36 36
21 21 21 21 22 22 23 23 23 23 23 23 23 24 25 25 25 25 25 25 24 24 23 23 24 25 26 26 27 28 29 30 31 32 32 32 33 34 34 35 36 36 36 35
21 21 22 22 22 23 23 23 23 23 23 23 23 24 24 25 25 24 24 24 24 23 24 24 25 25 26 26 27 28 29 30 31 31 32 32 33 33 33 34 34 34 34 34
22 22 23 23 23 23 23 23 23 23 22 23 23 23 23 23 23 23 22 22 23 23 23 24 25 25 26 26 27 28 28 28 29 29 30 31 31 31 31 31 31 31 31 31
23 23 23 23 23 23 22 22 22 22 23 23 23 23 22 22 21 21 21 21 22 22 23 24 24 24 25 25 25 26 26 26 27 27 27 28 28 29 29 29 28 28 28 28
23 23 23 23 22 22 22 22 22 22 22 23 22 22 22 22 21 20 20 21 22 22 22 23 23 23 23 23 23 24 24 24 25 25 25 25 25 26 26 26 26 25 25 25
22 22 22 22 22 22 22 22 22 22 22 22 22 22 22 22 21 21 21 21 21 21 21 22 22 22 22 22 23 23 23 23 23 23 23 23 23 23 24 23 23 23 23 23
21 21 21 21 21 21 22 22 22 23 22 22 21 21 21 21 21 21 21 21 21 21 21 21 21 21 21 21 21 21 21 20 20 20 21 21 21 21 21 21 21 21 20 20
21 21 21 21 21 21 22 22 22 22 21 21 21 21 21 20 20 21 20 20 20 20 20 20 20 20 20 19 18 18 18 18 18 18 18 18 18 18 18 18 18 18 18 18
21 21 21 21 21 21 21 22 22 22 21 21 21 21 21 20 20 20 19 19 20 20 20 20 20 19 18 17 16 16 17 17 16 16 15 15 15 15 15 15 16 16 16 17

GEFSNGP_500_meanwind_276.txt.gz
Wind_Speed
17 18 18 18 19 19 20 20 21 20 19 20 23 25 27 28 28 29 30 31 33 36 38 38 38 39 40 42 43 44 45 47 48 49 49 50 50 50 50 50 51 50 50 50
17 18 19 19 19 20 21 21 22 22 21 20 22 24 25 27 27 28 30 31 32 34 36 36 36 37 38 39 41 42 44 45 48 49 50 50 50 50 50 50 50 50 50 50
19 20 20 20 18 19 20 20 21 22 22 22 22 23 25 27 27 27 29 31 32 33 34 35 36 35 37 38 40 42 43 43 45 48 50 51 50 51 51 51 52 51 51 50
20 20 20 20 19 18 19 20 21 21 21 21 20 20 22 24 26 26 27 28 30 31 33 34 35 35 35 37 39 40 41 42 44 45 47 48 48 49 50 49 49 49 49 49
20 21 21 20 20 20 20 21 21 22 21 21 20 20 20 22 23 25 26 27 28 30 32 33 34 35 35 36 37 38 40 40 42 43 45 47 47 48 48 48 48 48 49 48
21 21 21 20 20 21 22 22 22 23 23 22 21 21 21 22 23 24 25 26 28 30 31 32 33 34 34 35 36 37 38 39 40 42 43 45 46 47 48 49 49 49 47 47
22 21 21 21 21 22 23 23 23 23 24 24 23 23 23 23 24 25 26 26 27 29 30 31 33 34 34 35 35 36 37 38 39 41 42 43 44 45 47 48 48 48 47 47
23 22 22 22 23 24 24 25 25 25 24 24 24 24 24 25 25 26 26 26 27 28 29 31 32 33 34 35 35 35 36 37 39 40 40 42 43 44 45 46 46 47 47 47
23 23 23 24 25 25 25 25 25 25 25 24 24 24 25 26 26 26 26 26 27 28 29 30 31 31 32 33 34 35 35 36 37 39 40 41 42 42 43 44 44 44 45 46
24 25 25 26 26 26 25 25 25 25 24 24 24 24 24 25 26 26 26 27 27 27 27 29 30 30 31 32 33 34 35 36 36 37 38 39 41 41 42 43 42 42 42 43
25 26 27 27 27 26 26 25 24 24 24 24 24 24 24 25 26 26 26 27 27 27 27 28 30 31 31 32 33 34 34 35 35 35 36 36 38 39 39 39 40 40 40 41
26 27 27 27 27 27 26 25 25 24 24 24 24 25 25 26 26 26 27 27 27 27 28 29 30 31 32 32 33 34 34 34 35 34 35 35 36 36 36 37 37 38 38 39
28 28 28 28 27 27 27 25 25 25 24 24 25 26 26 25 26 26 27 27 28 28 28 29 30 30 32 32 33 34 34 35 34 34 34 34 34 34 35 36 36 37 38 39
27 28 29 28 27 26 26 25 24 24 24 24 24 25 26 26 26 26 26 27 28 28 28 28 29 30 30 31 32 32 33 33 34 34 34 34 34 34 35 36 36 37 38 39
27 28 28 28 26 25 25 24 24 23 22 23 23 24 25 26 25 25 25 25 26 27 28 28 28 28 29 29 30 31 32 34 34 34 34 34 34 35 35 36 36 37 37 37
27 27 27 27 25 24 24 24 24 23 22 22 22 23 24 25 25 25 25 24 25 25 26 27 27 27 27 29 30 31 32 32 33 33 34 34 34 34 34 34 35 35 35 35
27 27 27 26 25 24 23 23 22 22 22 22 22 22 22 23 23 24 24 24 24 24 25 26 26 26 26 27 28 29 30 31 31 32 32 33 33 33 33 33 34 34 34 35
27 27 26 25 24 23 23 22 22 21 22 22 22 22 22 22 22 22 23 23 23 23 23 23 24 24 25 25 25 25 26 27 28 29 30 31 31 32 33 33 33 33 33 34
26 26 26 25 23 23 22 22 21 21 21 21 21 20 20 20 21 22 22 23 23 23 23 23 22 22 22 23 23 23 24 25 26 27 27 28 29 30 30 31 32 33 33 34
25 25 24 23 23 22 22 21 21 21 21 20 20 20 20 20 21 21 22 22 22 22 22 22 21 21 21 21 22 23 24 24 25 26 27 27 28 29 30 30 31 31 32 33
25 24 23 22 21 21 20 20 20 20 20 19 19 19 20 20 20 20 21 21 21 21 21 21 21 21 21 21 22 23 24 24 25 25 26 27 27 28 29 29 30 30 30 30
24 23 22 22 21 21 20 20 20 19 19 19 19 19 20 20 20 20 20 21 21 20 20 20 20 21 21 22 22 23 24 24 25 25 26 26 27 27 28 28 28 28 28 28
23 22 22 21 21 20 20 19 19 19 19 19 19 20 20 20 20 20 20 20 20 20 20 20 20 20 21 21 22 23 23 23 24 24 25 25 26 26 26 26 26 26 25 25
22 21 21 20 20 19 18 18 18 18 19 19 19 20 20 20 20 20 19 19 19 18 19 19 19 20 20 21 21 22 22 23 23 23 23 24 24 24 24 24 24 24 23 24
21 20 20 19 19 18 18 18 18 18 19 19 20 20 20 20 20 20 19 18 18 18 18 19 19 19 20 20 20 21 21 22 22 22 22 22 21 21 21 21 21 21 22 22
20 19 19 19 18 18 18 18 18 18 19 19 20 20 20 20 19 19 18 18 18 18 18 18 19 19 19 19 19 19 19 19 19 19 19 18 18 18 18 19 19 20 20 20
20 19 19 18 18 18 18 18 19 19 19 20 20 19 19 19 18 18 18 17 17 17 18 18 19 18 18 18 18 18 17 17 17 16 16 16 16 16 17 17 18 18 18 19

GEFSNGP_500_meanwind_282.txt.gz
Wind_Speed
18 18 19 19 20 21 24 25 27 26 27 27 28 29 29 29 29 27 26 27 30 32 34 34 36 36 37 38 40 40 41 41 42 44 44 45 45 47 48 48 48 47 48 47
18 19 20 20 21 23 24 25 26 26 26 26 27 27 27 28 28 28 27 27 29 30 31 32 33 34 36 37 38 38 38 39 41 42 42 43 45 45 46 46 46 47 48 48
20 20 20 20 21 22 23 24 24 25 25 25 25 25 24 25 27 28 28 29 30 30 31 33 34 34 35 37 37 38 38 39 39 39 40 41 44 45 46 46 46 46 47 47
23 23 23 22 22 23 24 24 24 24 25 25 25 24 25 25 26 27 29 29 29 30 31 33 33 33 34 36 36 37 37 38 39 38 38 39 41 43 44 46 47 47 47 46
25 26 25 24 24 24 24 24 24 24 25 25 25 25 25 25 26 27 27 28 28 29 29 30 31 33 33 35 36 36 36 37 37 37 37 38 41 42 43 45 46 46 46 47
25 27 27 26 25 25 25 25 25 26 26 28 28 27 26 26 26 27 27 27 26 26 27 29 31 32 32 33 35 36 36 37 38 38 37 37 39 41 42 44 45 45 45 46
25 27 27 27 27 27 27 26 26 27 28 28 28 27 27 26 27 27 27 27 27 26 27 28 29 31 32 33 34 35 36 37 38 38 39 39 39 39 40 41 42 43 43 43
27 27 27 28 28 28 28 28 28 29 29 28 28 28 27 27 26 27 27 28 28 28 28 29 30 31 32 33 33 34 34 35 36 37 37 37 37 38 38 39 39 40 41 42
27 28 28 28 28 28 29 29 29 29 30 30 30 29 28 27 26 27 27 28 29 29 29 29 30 31 32 32 32 32 32 33 34 35 35 36 36 37 37 38 37 38 39 40
28 28 28 28 29 29 29 30 30 30 30 30 30 29 28 28 27 27 28 28 28 28 28 29 29 30 30 31 33 33 33 33 33 33 34 34 34 35 36 37 37 37 38 38
28 29 29 29 30 30 30 31 31 31 31 31 30 29 29 29 29 29 29 28 28 28 28 28 28 28 29 30 31 32 33 34 33 34 34 34 34 34 35 36 37 38 38 39
28 28 29 29 30 30 31 31 31 31 31 31 31 31 31 30 29 29 29 28 28 28 28 28 28 28 28 29 31 32 33 33 33 34 34 34 34 35 35 35 36 37 37 37
29 29 29 29 29 30 31 31 31 31 31 31 31 31 30 29 29 28 28 28 28 28 29 29 29 29 28 29 30 31 31 31 32 33 34 34 34 34 35 35 36 36 36 36
29 29 29 29 29 30 30 30 30 31 31 31 30 30 30 29 28 27 27 27 28 29 29 29 29 29 29 29 30 30 30 30 31 32 33 34 34 35 34 35 35 35 35 35
29 29 29 30 30 30 30 30 30 30 31 31 30 30 29 28 27 27 26 26 27 28 28 28 29 29 29 29 30 30 30 30 30 31 32 32 33 33 33 34 34 34 34 34
29 29 29 30 30 30 29 29 29 29 30 30 29 29 28 28 27 26 25 26 26 26 27 27 27 28 28 28 28 29 29 29 29 30 30 30 31 32 32 33 33 33 33 34
30 29 29 30 30 29 29 29 29 29 29 29 28 27 27 26 26 26 25 26 26 26 26 26 26 26 27 27 27 28 28 29 29 29 29 30 30 31 31 32 32 33 33 33
29 29 29 29 29 29 29 28 28 28 28 27 26 25 24 24 24 25 25 25 24 24 24 24 24 24 25 26 26 27 27 28 28 28 28 28 29 30 30 31 31 31 31 32
28 29 29 29 29 28 28 28 28 28 27 26 25 24 23 23 23 23 23 23 23 23 23 23 22 22 23 23 24 25 25 26 26 26 26 27 28 28 28 29 29 30 30 31
28 28 28 29 29 28 28 28 28 27 26 25 24 23 22 22 22 22 22 22 22 21 21 21 21 21 21 22 23 23 24 24 24 24 25 25 26 26 27 27 28 29 29 31
26 27 28 28 28 28 27 27 27 26 25 24 23 22 22 21 21 21 21 21 21 21 21 20 20 20 20 21 22 22 23 23 24 24 24 24 25 25 26 26 27 28 28 29
26 26 27 27 27 27 26 26 25 25 24 23 22 22 21 21 21 20 20 20 20 20 20 20 20 20 20 20 21 21 21 22 23 24 24 24 24 25 25 25 26 26 27 28
25 25 26 26 26 26 25 25 24 23 23 22 21 21 21 21 21 20 21 20 20 20 20 20 20 20 20 20 21 21 21 22 22 22 23 24 24 25 25 25 25 25 26 26
24 24 24 24 25 25 24 23 23 22 21 21 21 20 20 20 20 20 20 20 20 19 19 19 19 20 21 21 21 21 21 22 22 22 23 23 23 23 24 24 24 24 24 25
23 23 23 24 24 23 23 22 22 21 20 20 20 20 20 20 20 20 20 20 20 19 19 19 20 20 20 20 21 21 22 22 22 22 22 22 22 23 23 23 23 23 23 23
23 23 23 23 23 22 22 22 22 21 20 20 20 20 20 20 19 19 19 19 19 19 19 19 20 20 21 21 21 21 21 21 22 22 22 21 21 21 21 22 22 22 22 21
23 23 23 22 22 22 22 22 21 21 20 19 19 19 20 20 20 19 19 19 19 19 19 19 20 20 20 20 20 21 21 21 21 20 20 20 20 20 21 21 21 20 20 19

GEFSNGP_500_meanwind_288.txt.gz
Wind_Speed
15 15 16 17 18 19 21 23 24 24 24 25 26 27 27 28 29 30 31 31 32 32 33 34 35 36 37 38 40 41 42 43 44 45 45 45 45 45 46 46 46 45 46 47
16 17 17 17 18 20 21 23 25 25 25 26 27 27 28 28 29 30 31 30 31 32 33 34 35 36 36 37 38 39 41 41 42 43 43 43 43 44 45 45 44 43 44 44
18 18 19 18 18 20 21 23 24 25 25 26 28 28 28 29 29 30 30 30 30 31 32 33 33 34 36 36 38 39 39 40 40 41 42 43 43 42 42 43 44 43 43 44
20 20 20 20 21 22 23 24 24 25 25 26 27 27 28 29 29 29 29 28 29 30 31 32 33 33 34 35 36 37 37 36 38 39 40 41 42 42 42 42 43 43 42 42
21 21 21 22 22 23 24 24 25 26 26 26 26 26 27 28 28 29 28 27 28 28 30 30 30 31 32 33 35 35 35 35 36 37 37 38 39 40 40 40 41 40 40 40
21 22 22 23 23 24 25 25 25 27 27 26 25 25 25 26 27 28 28 27 27 27 28 28 28 29 30 31 32 33 33 34 34 34 34 35 36 37 37 38 39 39 39 39
21 22 22 23 23 25 25 26 27 28 28 28 27 27 27 27 28 28 28 28 27 27 28 28 28 27 27 29 31 32 32 32 32 32 33 34 34 35 35 36 37 37 37 37
22 22 22 22 23 24 25 26 27 28 29 29 28 28 28 28 29 29 29 29 28 28 27 27 28 28 27 27 28 29 30 31 32 32 32 32 34 35 35 35 35 35 35 36
23 22 23 23 24 25 26 27 28 28 28 28 28 28 28 28 29 29 29 29 28 28 27 27 27 27 27 26 26 28 29 30 31 32 32 32 33 34 35 35 35 34 35 35
23 23 24 26 27 27 27 27 27 27 27 27 27 27 27 28 28 28 29 29 29 29 29 28 28 27 26 26 27 27 28 30 31 31 32 32 32 32 33 34 34 34 33 34
24 24 25 27 28 28 28 28 27 27 27 27 27 27 27 27 28 28 28 28 29 29 29 29 29 29 28 27 27 28 28 29 30 31 31 31 31 31 32 32 33 33 33 33
26 26 27 26 27 28 28 28 28 27 28 28 28 28 28 28 28 29 28 28 28 28 29 29 29 29 28 28 27 27 26 26 27 28 30 31 30 31 31 32 32 32 32 33
27 27 27 26 26 27 28 27 27 28 28 28 28 28 28 29 29 29 29 29 28 27 27 28 28 27 27 26 27 26 26 26 26 26 27 28 29 30 31 31 31 32 32 32
27 27 27 27 27 27 27 27 28 28 29 29 29 29 29 30 30 30 30 29 28 27 26 26 26 26 26 25 25 26 26 26 27 27 27 27 28 29 30 31 31 31 32 32
27 27 27 27 27 27 28 28 28 28 28 28 28 28 29 30 30 30 29 28 27 26 26 25 24 24 24 25 25 25 25 25 25 26 26 27 27 28 28 29 30 30 31 31
28 27 27 27 27 27 28 27 27 27 27 28 28 28 29 29 29 28 27 26 26 25 25 24 24 24 24 24 24 25 25 25 25 26 26 26 27 27 28 28 29 29 30 30
28 27 27 27 27 27 27 27 27 27 28 28 28 28 28 27 27 26 26 25 25 24 24 24 24 24 24 23 23 24 24 25 26 26 26 26 26 27 28 28 28 28 29 29
29 28 27 27 27 27 27 27 27 27 27 28 28 27 26 26 25 24 24 23 23 23 23 23 23 23 23 23 23 23 24 24 24 25 25 25 25 25 26 26 26 27 27 28
28 27 27 27 27 27 27 27 27 27 27 27 27 26 25 24 24 23 23 22 22 22 22 22 22 22 22 22 22 22 22 23 23 24 24 24 24 25 25 25 26 26 26 27
26 26 27 26 26 26 26 26 26 26 26 26 26 26 24 23 22 21 21 21 20 20 20 20 20 20 20 20 20 20 21 21 22 23 23 24 25 25 25 26 26 27 27 27
25 25 26 26 25 25 25 25 25 26 26 26 26 25 23 22 21 20 20 19 19 19 18 18 18 18 18 19 19 19 20 21 21 21 22 22 23 24 25 25 26 26 27 27
24 24 25 25 25 25 25 25 25 26 26 26 25 24 22 21 20 20 20 19 19 18 17 17 17 17 17 17 18 19 20 20 20 21 21 22 22 23 23 24 24 25 25 26
23 23 23 24 24 24 24 24 25 25 25 25 24 23 21 20 20 19 19 18 18 17 16 16 16 16 16 17 18 19 20 20 21 21 21 21 22 22 22 23 24 24 25 26
23 23 23 23 24 23 23 24 24 24 24 23 22 21 20 19 18 18 17 17 16 16 15 15 15 16 17 18 19 19 20 20 21 21 22 22 22 22 22 23 23 24 24 24
24 23 23 23 23 24 24 24 24 23 23 22 20 19 18 17 17 17 16 16 16 16 16 16 16 16 17 18 18 19 19 20 20 21 21 22 22 22 22 23 23 23 24 24
24 23 23 23 23 23 23 22 22 22 21 19 18 17 17 16 15 15 16 16 16 16 16 16 16 16 17 18 18 19 19 19 20 20 20 20 20 21 21 21 21 21 22 22
22 22 22 21 21 21 21 20 20 18 18 17 16 16 16 16 15 15 16 16 16 16 16 16 17 17 18 18 18 19 19 19 19 19 19 19 19 19 19 19 19 19 20 20

GEFSNGP_500_meanwind_294.txt.gz
Wind_Speed
19 19 20 19 19 21 21 22 23 22 23 24 27 28 28 28 29 30 31 32 33 35 37 38 39 40 41 40 41 41 42 43 43 44 44 44 44 45 45 45 46 47 47 46
19 19 20 20 20 21 22 22 23 24 23 25 26 28 30 30 30 30 31 32 33 35 36 36 37 38 39 39 39 40 41 42 42 43 44 43 43 43 44 45 45 46 46 44
21 21 21 21 20 21 23 24 25 26 26 27 28 29 30 31 32 32 31 32 33 34 35 35 36 36 36 37 38 39 40 41 41 42 42 43 43 42 43 44 44 44 44 44
22 22 22 22 22 23 24 25 26 27 27 29 30 31 31 32 33 33 33 32 32 33 34 35 35 35 36 37 38 38 38 39 40 40 41 42 42 43 42 42 43 42 43 43
23 23 23 22 23 24 25 25 26 28 29 30 31 31 32 32 33 33 34 33 33 33 34 34 34 35 36 36 37 37 37 37 37 37 39 39 40 42 42 42 41 41 41 41
24 24 24 23 24 25 26 27 28 29 30 31 31 31 30 31 32 32 33 33 32 33 33 33 34 35 35 35 34 34 34 33 34 35 36 37 38 39 39 40 39 39 39 39
24 24 24 23 24 25 27 28 29 30 31 31 30 30 30 30 31 32 32 32 31 32 32 33 33 34 33 33 33 32 32 32 33 34 35 36 36 36 37 36 36 37 37 36
23 23 23 23 24 25 27 28 28 29 29 30 30 30 31 31 31 31 31 31 32 32 33 33 33 34 34 34 34 33 33 32 32 33 34 35 35 34 34 35 35 35 35 35
23 23 24 25 25 26 28 28 29 30 30 30 30 30 31 31 31 31 30 31 31 31 31 32 33 33 34 34 33 33 32 32 33 33 34 34 34 34 33 34 34 34 35 36
25 24 25 26 27 28 29 29 30 30 30 30 30 30 30 30 30 29 30 30 30 30 30 30 31 31 31 31 31 31 31 31 31 32 32 32 32 32 33 33 33 34 34 35
26 25 26 27 28 29 30 31 31 30 30 30 30 30 30 29 29 29 29 29 29 29 29 29 31 30 30 30 29 29 29 29 29 29 29 30 30 30 31 32 33 34 34 34
27 28 29 29 29 30 30 31 32 32 31 30 30 29 29 29 29 29 29 29 29 29 29 30 30 30 29 28 28 28 28 28 28 28 27 27 28 28 29 30 30 31 31 31
29 30 30 30 31 31 32 32 32 32 31 30 30 29 29 29 29 29 28 28 29 29 29 30 30 29 28 27 26 26 26 27 27 27 27 27 27 27 27 27 28 29 29 29
30 30 31 32 32 32 32 32 32 32 31 31 30 29 29 29 29 29 28 29 29 29 29 29 29 28 28 26 25 24 25 26 26 26 26 26 26 26 25 26 26 28 29 30
31 32 32 33 33 33 32 32 31 31 31 30 30 30 30 29 29 29 29 29 28 29 29 28 28 27 27 26 25 24 24 24 25 25 25 26 26 26 25 26 27 27 29 29
31 32 33 33 33 32 32 31 31 30 30 30 30 30 30 30 29 29 29 29 28 28 28 28 26 26 26 25 25 25 24 24 24 24 24 24 25 25 26 26 26 27 28 29
31 31 31 32 32 31 31 30 30 30 30 31 30 30 30 30 30 30 29 29 29 28 28 27 26 25 25 25 25 24 24 23 23 23 23 23 24 25 25 26 26 26 27 28
30 30 30 30 29 29 29 29 29 29 30 30 31 31 30 30 30 30 29 29 28 28 27 26 26 25 25 25 25 24 23 23 22 22 22 22 23 24 24 24 25 25 25 26
29 29 28 28 28 28 27 28 28 29 29 29 30 29 29 29 29 29 28 28 28 27 26 26 25 25 25 25 25 24 23 22 21 21 21 21 22 23 23 23 23 23 23 24
28 27 27 27 28 28 27 28 28 29 29 29 28 28 27 26 26 26 26 26 26 26 25 25 24 24 24 24 23 22 22 21 20 20 20 21 21 21 21 21 21 22 22 23
27 26 26 27 27 27 28 28 28 28 28 27 27 27 25 25 24 24 24 24 24 23 23 23 23 23 23 22 21 20 19 19 19 19 19 19 19 19 20 21 21 22 22 23
27 27 27 27 27 27 27 27 27 27 26 26 25 25 24 23 23 23 23 22 22 22 22 23 22 22 21 21 20 19 19 19 19 18 19 19 19 20 20 21 22 22 23 23
26 26 27 27 27 27 26 26 25 25 24 24 23 23 23 22 22 22 22 22 22 22 22 22 22 21 20 19 18 18 18 18 18 18 19 20 20 20 21 21 22 22 23 23
26 26 26 27 27 26 25 25 25 24 24 23 23 22 22 21 21 21 21 21 21 22 22 22 21 20 18 18 17 17 17 17 17 18 19 20 21 21 21 21 21 22 22 23
25 26 26 26 26 25 24 24 24 24 24 23 23 22 22 22 22 21 20 20 20 21 21 20 20 19 18 17 16 16 16 17 18 18 18 19 20 21 21 22 22 22 23 23
24 24 24 24 24 24 23 23 23 23 23 23 22 22 22 22 21 21 21 21 20 20 19 18 18 18 18 18 18 18 18 18 18 19 19 20 20 20 20 21 22 22 23 23
25 24 24 24 23 23 22 22 22 22 21 21 21 21 21 21 21 21 21 21 20 20 19 18 17 17 18 19 19 19 19 19 19 19 20 20 20 20 21 21 21 22 22 22

GEFSNGP_500_meanwind_300.txt.gz
Wind_Speed
20 20 20 20 20 20 21 22 22 21 20 20 22 22 24 24 25 25 26 26 27 29 31 34 36 37 38 39 40 41 42 43 44 44 44 45 45 44 44 44 44 44 45 46
20 20 21 20 20 21 22 22 22 22 22 22 23 23 24 26 27 26 26 27 28 30 31 33 35 37 38 40 40 41 42 43 43 43 44 44 44 43 41 42 42 42 44 44
19 20 21 21 20 21 22 22 23 23 22 23 24 25 25 27 28 29 28 29 30 31 31 33 34 35 37 38 40 42 42 41 41 41 41 42 43 42 41 41 42 42 42 42
20 20 22 21 20 20 21 22 23 23 24 24 25 26 26 27 28 30 30 30 30 32 33 34 35 36 37 38 38 39 39 39 39 39 40 40 40 41 42 41 41 41 41 41
21 21 21 21 20 20 21 21 22 23 24 24 25 25 26 27 28 29 30 31 31 32 34 35 35 36 37 38 37 37 37 37 37 37 37 38 38 39 39 39 39 39 39 40
21 22 22 21 20 21 21 21 21 23 23 24 25 26 26 27 28 29 31 31 31 32 33 34 34 35 35 37 37 36 35 35 35 35 35 36 36 36 36 37 38 38 37 38
21 22 22 21 21 21 21 22 22 23 24 25 26 26 26 27 28 29 30 31 31 32 32 32 32 32 33 33 33 33 33 33 34 34 34 35 35 35 35 36 37 37 37 37
21 22 21 21 22 22 22 23 24 25 26 26 27 27 27 28 29 29 29 30 31 31 31 30 30 31 31 31 32 32 32 32 33 34 34 35 35 35 35 35 35 35 35 36
22 22 23 22 22 23 24 24 25 26 27 27 27 28 29 29 29 30 30 30 30 29 29 29 29 29 29 30 30 31 31 31 31 32 32 33 33 33 33 33 33 32 33 33
23 23 23 23 23 24 25 25 25 26 27 27 28 28 29 29 29 29 29 29 29 28 28 29 29 28 29 29 29 29 29 30 30 30 31 32 32 32 32 31 31 31 31 32
22 22 23 23 24 24 25 25 26 26 27 27 27 27 27 28 28 27 27 27 27 27 27 28 28 28 28 28 28 28 28 28 28 29 29 29 30 30 31 30 30 30 31 31
21 22 23 24 24 25 25 26 27 27 27 27 27 27 27 27 27 27 27 26 26 26 27 27 28 28 28 28 28 28 27 26 26 27 27 28 28 28 28 28 28 28 29 30
23 23 24 24 24 25 26 26 26 26 26 26 27 27 27 27 27 27 26 27 26 26 26 27 27 27 27 27 27 27 26 26 26 25 26 25 25 24 24 25 25 27 27 28
23 23 23 24 25 25 25 25 26 26 26 27 27 27 27 26 26 26 26 26 25 25 26 26 26 26 26 27 26 26 26 26 25 24 23 23 23 23 23 24 25 25 26 26
23 24 24 25 25 26 26 26 26 26 26 27 27 27 26 26 25 25 25 25 24 25 25 25 25 25 25 26 26 26 26 25 24 23 22 21 21 22 22 23 24 25 25 26
24 25 26 27 27 27 27 27 27 27 26 26 26 25 25 25 25 24 24 24 24 24 24 24 24 25 25 25 25 25 25 24 23 22 21 20 21 21 22 23 23 24 24 25
26 27 28 28 28 28 27 27 27 26 25 25 24 24 24 23 23 23 24 24 24 23 23 23 24 25 25 25 25 24 24 23 23 23 22 21 21 21 21 22 22 23 23 24
27 27 28 28 28 28 27 27 26 25 25 25 24 24 23 23 23 23 23 23 24 23 23 24 24 24 24 24 24 24 23 23 23 23 23 22 22 21 21 20 20 20 22 23
27 27 27 27 28 28 27 26 26 25 25 25 25 24 24 23 23 22 23 23 23 24 24 24 24 24 24 24 24 23 23 22 22 22 22 22 22 21 20 19 19 19 20 21
26 27 26 26 26 25 25 25 25 25 25 25 25 25 25 24 24 23 24 24 23 24 24 24 24 24 24 24 24 23 22 22 22 22 22 21 21 21 20 19 19 19 19 20
26 26 26 26 25 25 24 24 23 24 24 24 24 24 24 24 24 24 24 24 24 24 24 24 24 23 23 23 23 22 22 22 22 21 21 21 20 20 20 19 19 19 19 19
25 25 25 25 25 24 23 23 24 24 24 24 24 24 24 24 24 24 24 23 23 23 23 23 23 22 22 22 21 21 20 20 20 21 21 20 20 20 19 19 19 18 18 18
25 24 24 23 23 22 22 23 23 24 25 25 25 25 25 25 24 24 24 23 23 23 23 23 23 22 22 21 21 20 20 20 19 19 19 19 19 19 18 19 19 19 19 19
23 23 22 22 21 21 21 21 22 23 24 24 25 25 25 25 24 24 23 23 23 23 23 23 23 22 22 21 21 21 20 19 19 18 18 18 18 18 18 18 18 19 19 20
22 22 22 22 22 21 21 22 22 23 23 23 23 24 24 24 24 23 22 22 22 22 22 22 22 22 22 21 21 20 19 19 19 19 19 18 18 18 19 19 19 19 19 20
22 22 22 21 21 21 21 22 22 22 22 22 22 22 22 22 22 22 22 22 22 22 22 21 21 21 21 20 20 19 19 19 19 19 19 19 19 19 19 19 20 20 20 20
22 22 21 21 21 22 22 21 21 20 20 21 21 21 20 20 20 21 21 22 21 21 21 21 21 21 20 20 19 19 19 18 18 18 18 18 18 18 18 18 19 19 20 20

GEFSNGP_500_meanwind_306.txt.gz
Wind_Speed
25 24 24 24 23 23 24 24 24 23 23 22 23 23 24 25 26 26 27 28 29 29 30 30 32 33 35 36 37 38 39 40 42 44 46 46 46 47 47 46 46 46 46 47
25 24 24 24 23 24 24 24 24 24 23 22 23 24 24 25 26 26 27 28 28 29 28 29 30 31 32 33 35 36 37 39 41 43 44 45 45 45 46 45 46 46 46 45
26 25 26 25 23 24 25 25 24 24 23 22 23 24 24 25 25 26 27 27 27 27 28 29 30 30 31 33 34 35 36 37 39 40 41 42 43 43 44 44 44 44 45 45
26 26 27 25 24 24 25 24 24 24 24 23 23 24 24 25 24 25 26 27 27 28 29 30 31 32 32 33 35 35 35 37 38 38 38 40 40 41 42 42 42 43 44 45
25 25 25 24 24 24 24 24 24 24 23 23 23 24 24 24 25 25 26 27 27 28 28 29 30 31 31 33 34 35 36 36 37 37 38 38 38 39 40 41 42 43 44 44
24 23 23 22 23 23 24 24 23 23 23 23 24 24 24 24 25 26 26 27 27 27 28 29 30 31 32 33 33 34 35 34 36 36 37 37 37 38 40 41 42 42 42 42
24 24 23 21 21 22 24 24 23 24 24 24 24 25 25 25 26 27 27 28 28 28 29 30 30 31 33 33 34 34 35 34 34 35 35 35 36 37 38 39 40 40 40 40
23 24 22 21 22 23 23 24 24 25 25 26 26 26 26 26 27 27 28 29 29 28 29 29 30 31 33 33 34 35 34 34 33 33 33 33 34 34 35 35 36 36 37 37
22 22 21 22 23 23 24 24 24 25 25 26 26 27 27 27 27 28 29 29 30 29 28 29 29 30 32 33 33 33 32 31 31 31 32 33 32 32 32 33 33 33 34 35
22 21 22 22 23 24 25 25 26 26 27 27 27 27 27 28 28 29 30 30 30 30 29 29 29 30 30 30 30 30 30 30 31 31 31 31 31 31 31 32 32 32 31 31
22 22 22 22 23 24 25 26 27 26 26 27 27 28 28 28 29 29 30 30 30 30 29 29 28 28 29 29 29 29 29 30 31 31 32 32 32 31 30 29 29 29 29 29
22 22 23 23 23 24 24 25 26 26 27 27 28 28 28 29 29 29 29 28 28 28 28 28 27 27 28 28 28 29 29 30 31 31 30 30 30 30 30 29 29 29 28 28
22 23 24 24 25 25 25 25 26 26 26 27 27 27 27 27 28 28 28 28 28 28 28 28 28 28 28 28 28 29 29 29 29 29 29 30 30 29 28 28 29 29 28 28
22 23 23 24 25 25 25 25 25 26 26 26 26 26 26 26 27 27 28 28 27 27 27 27 27 27 27 27 28 28 29 29 29 29 29 30 29 28 27 27 27 27 28 28
23 24 24 24 24 25 25 25 25 25 25 25 25 26 26 26 26 26 27 27 27 27 27 26 26 26 26 27 27 28 28 29 28 28 29 29 28 28 27 27 26 26 26 26
25 25 25 25 24 24 24 25 25 25 25 25 26 26 27 26 26 26 26 26 25 25 25 25 25 25 25 26 27 27 28 28 27 27 27 27 26 26 26 26 25 24 24 24
25 25 24 24 24 24 24 24 24 25 25 26 26 27 27 27 26 26 25 25 25 25 24 24 25 25 25 26 26 27 27 27 27 27 27 26 25 25 25 24 24 24 24 24
24 24 24 24 24 24 24 25 25 25 26 26 26 27 27 26 26 26 26 26 26 25 25 25 26 26 27 27 27 27 27 27 27 26 26 25 25 24 23 23 23 23 24 24
24 24 24 24 24 24 25 25 26 26 26 26 26 26 25 25 26 26 26 26 26 26 26 27 27 27 27 27 27 27 27 26 26 26 25 24 24 23 23 22 22 22 22 23
25 25 25 25 25 25 25 25 25 25 25 25 25 25 25 25 25 25 25 26 26 27 27 27 27 27 27 28 28 28 27 26 26 25 24 24 23 23 23 23 22 21 21 21
25 25 26 26 26 26 26 26 26 25 25 25 26 26 26 25 25 25 26 26 27 27 27 28 28 28 28 28 28 28 28 27 26 25 24 24 23 23 23 23 23 22 22 22
26 26 26 26 27 27 27 26 26 26 26 26 26 27 27 26 27 27 27 28 28 28 28 28 29 29 29 28 28 28 27 26 25 25 24 24 24 23 23 23 22 22 22 22
26 26 25 25 25 25 25 25 25 25 25 26 26 26 26 26 27 27 27 27 28 27 28 28 29 29 28 28 28 28 26 25 25 24 24 23 23 23 23 22 22 22 21 21
26 26 26 25 25 25 25 25 25 25 25 26 26 26 26 27 27 27 27 27 27 27 27 27 27 26 26 26 26 26 25 24 23 23 22 22 22 21 21 21 21 21 21 21
25 25 26 26 25 25 26 26 26 26 26 26 26 26 27 27 27 27 27 27 27 27 27 27 26 26 25 25 25 25 24 24 23 23 22 22 21 20 20 20 20 19 19 20
25 25 25 26 26 26 26 26 26 26 26 26 26 26 26 26 26 26 26 26 26 26 26 26 25 25 25 25 24 24 24 23 23 22 22 22 21 20 19 19 19 18 18 19
26 26 26 26 26 26 26 26 26 26 26 26 25 25 25 25 24 24 24 24 24 24 24 23 23 23 23 23 23 23 22 22 22 22 22 21 20 20 19 19 19 18 18 18